Tracking 19651 objects as of 23-Apr-2019
HD Live streaming from Space Station
objects crossing your sky now

CZ-4 DEB

Track CZ-4 DEB now!
10-day predictions


NORAD ID: 26225
Int'l Code: 1999-057DP
Perigee: 596.4 km
Apogee: 626.0 km
Inclination: 98.5 °
Period: 96.8 minutes
Semi major axis: 6982 km
RCS: 0.208 m2 (medium)
Launch date: October 14, 1999
Source: People's Republic of China (PRC)
Launch site: Taiyaun Space Center, China (TSC)

Note: This is SATELLITE DEBRIS
aabbcc
Your satellite tracking list
Your tracking list is empty




NASA's NSSDC Master Catalog

Two Line Element Set (TLE):
1 26225U 99057DP  19113.04961003  .00000758  00000-0  89149-4 0  9990
2 26225  98.5188 141.1346 0021178  80.8552 331.9193 14.88038012 21170
Source of the keplerian elements: AFSPC